Location: Cormont
(50.5693°N, 1.7416°E)
Time: 01:57:06
(UTC+00:00)

STARLINK-58 - Pass Details

Date: 21 October 2019
Orbit: 548 x 551 km, 53.0° (Epoch: 13 November)

Event Time Altitude Azimuth Distance (km) Brightness Sun altitude
Rises 18:53:46 0° 283° (WNW) 2,720 8.8 -20.4°
Reaches altitude 10° 18:56:01 10° 286° (WNW) 1,826 7.4 -20.7°
Maximum altitude 19:00:09 66° 9° (N) 602 3.7 -21.4°
Enters shadow 19:00:32 62° 44° (NE) 623 3.6 -21.4°
